Location: Grums
(59.3529°N, 13.1129°E)
Time: 04:01:55
(UTC+02:00)

Envisat - Pass Details

Date: 05 October 2021
Orbit: 764 x 766 km, 98.2° (Epoch: 25 October)

Event Time Altitude Azimuth Distance (km) Brightness Sun altitude
Rises 06:20:27 0° 17° (NNE) 3,248 6.6 -8.7°
Reaches altitude 10° 06:22:49 10° 21° (NNE) 2,317 5.9 -8.4°
Maximum altitude 06:27:53 62° 103° (ESE) 862 3.6 -7.7°
Drops below altitude 10° 06:32:54 10° 184° (S) 2,300 5.4 -7.1°
Sets 06:35:14 0° 188° (S) 3,222 6.1 -6.8°
